Weather History for Douglas, WY

Change the Weather History Date:

Thursday, September 6, 2012

  Actual Average Record
Temperature  
Mean Temperature 66 °F 63 °F  
Max Temperature 84 °F 80 °F 93 °F (2013)
Min Temperature 48 °F 46 °F 36 °F (2010)
Degree Days  
Heating Degree Days 0 4  
Month to date heating degree days 3 20  
Since 1 July heating degree days 10 61  
Cooling Degree Days 1 2  
Month to date cooling degree days 25 15  
Year to date cooling degree days 822 473  
Growing Degree Days 15 (Base 50)    
Moisture  
Dew Point 28 °F    
Average Humidity 39    
Maximum Humidity 66    
Minimum Humidity 11    
Precipitation  
Precipitation 0.06 in 0.03 in 0.28 in (2008)
Month to date precipitation 0.06 0.21  
Year to date precipitation 3.97 10.26  
Sea Level Pressure  
Sea Level Pressure 29.91 in    
Wind  
Wind Speed 12 mph (NNW)    
Max Wind Speed 24 mph    
Max Gust Speed 29 mph    
Visibility 10 miles    
Events Rain    
T = Trace of Precipitation, MM = Missing Value Source: NWS Daily Summary

Daily Weather History Graph

Daily Weather History Graph

Search for Another Location

Airport:

Trip Planner

Search our weather history database for the weather conditions in past years. The results will help you decide how hot, cold, wet, or windy it might be!

Date:

Astronomy

Sep. 06, 2012 Rise Set
Actual Time 6:32 AM MDT 7:26 PM MDT
Civil Twilight 6:03 AM MDT 7:55 PM MDT
Nautical Twilight 5:29 AM MDT 8:29 PM MDT
Astronomical Twilight 4:53 AM MDT 9:04 PM MDT
Moon 10:28 PM MDT (9/6) 12:43 PM MDT (9/6)
Length of Visible Light 13h 51m
Length of Day
12h 54m
Waning Gibbous, 67% of the Moon is Illuminated
Sep 6
Waning Gibbous
Sep 8
Last Quarter
Sep 15
New
Sep 22
First Quarter
Sep 29
Full

Hourly Weather History & Observations

Time (MDT) Temp. Dew Point Humidity Pressure Visibility Wind Dir Wind Speed Gust Speed Precip Events Conditions
12:53 AM 50.0 °F 27.0 °F 41% 29.85 in 10.0 mi NW 10.4 mph 24.2 mph N/A   Clear
1:53 AM 57.0 °F 23.0 °F 27% 29.83 in 10.0 mi NW 10.4 mph - N/A   Partly Cloudy
2:53 AM 54.0 °F 21.9 °F 29% 29.85 in 10.0 mi NW 10.4 mph - N/A   Clear
3:53 AM 57.0 °F 25.0 °F 29% 29.83 in 10.0 mi NNW 10.4 mph - N/A   Partly Cloudy
4:53 AM 55.0 °F 26.1 °F 33% 29.86 in 10.0 mi NW 10.4 mph - N/A   Clear
5:53 AM 50.0 °F 25.0 °F 38% 29.88 in 10.0 mi NW 4.6 mph - N/A   Clear
6:53 AM 48.0 °F 23.0 °F 37% 29.91 in 10.0 mi WNW 4.6 mph - N/A   Clear
7:53 AM 55.0 °F 25.0 °F 31% 29.93 in 10.0 mi NNW 5.8 mph - N/A   Clear
8:53 AM 64.0 °F 23.0 °F 21% 29.90 in 10.0 mi NNW 4.6 mph - N/A   Clear
9:53 AM 72.0 °F 24.1 °F 17% 29.89 in 10.0 mi NW 3.5 mph - N/A   Clear
10:53 AM 81.0 °F 21.0 °F 11% 29.88 in 10.0 mi NNW 12.7 mph 23.0 mph N/A   Clear
11:53 AM 82.0 °F 23.0 °F 11% 29.87 in 10.0 mi NNE 6.9 mph - N/A   Clear
12:53 PM 82.0 °F 25.0 °F 12% 29.88 in 10.0 mi North 12.7 mph 26.5 mph N/A   Clear
1:53 PM 82.0 °F 25.0 °F 12% 29.85 in 10.0 mi North 10.4 mph 21.9 mph N/A   Clear
2:53 PM 82.0 °F 26.1 °F 13% 29.86 in 10.0 mi North 13.8 mph 21.9 mph N/A   Clear
3:53 PM 80.1 °F 26.1 °F 14% 29.85 in 10.0 mi NNE 12.7 mph - N/A   Clear
4:53 PM 79.0 °F 27.0 °F 15% 29.87 in 10.0 mi North 17.3 mph 24.2 mph N/A   Partly Cloudy
5:53 PM 73.9 °F 28.0 °F 18% 29.94 in 10.0 mi North 19.6 mph 26.5 mph N/A   Clear
6:53 PM 70.0 °F 28.9 °F 22% 29.99 in 10.0 mi North 21.9 mph 27.6 mph N/A   Clear
7:53 PM 66.9 °F 32.0 °F 27% 30.02 in 10.0 mi North 19.6 mph 25.3 mph N/A   Clear
9:53 PM 57.9 °F 43.0 °F 58% 30.09 in 10.0 mi NNE 12.7 mph - 0.00 in Rain Light Rain
10:53 PM 55.9 °F 44.1 °F 64% 30.05 in 10.0 mi North 16.1 mph - 0.00 in   Mostly Cloudy
11:53 PM 55.0 °F 45.0 °F 69% 30.07 in 10.0 mi North 11.5 mph - N/A   Overcast